Tracking 29487 objects as of 12-Sep-2024
HD Live streaming from Space Station
objects crossing your sky now

FENGYUN 1C DEB

Track FENGYUN 1C DEB now!
10-day predictions


NORAD ID: 30515
Int'l Code: 1999-025AJD
Perigee: 665.1 km
Apogee: 1,416.5 km
Inclination: 98.5 °
Period: 105.8 minutes
Semi major axis: 7411 km
RCS: 0.0145 m2 (small)
Launch date: May 10, 1999
Source: People's Republic of China (PRC)
Launch site: Taiyaun Space Center, China (TSC)

Note: This is SATELLITE DEBRIS
Your satellite tracking list
Your tracking list is empty




NASA's NSSDC Master Catalog

Two Line Element Set (TLE):
1 30515U 99025AJD 24255.26617236  .00003417  00000-0  19432-2 0  9996
2 30515  98.5296 180.3640 0506907 203.6253 314.1151 13.60559073871006
Source of the keplerian elements: AFSPC